Location: Observatoire
(46.1952°N, 5.3391°E)
Time: 01:36:19
(UTC+01:00)

Explorer 7 - Pass Details

Date: 25 February 2026
Orbit: 430 x 541 km, 50.2° (Epoch: 10 March)

Event Time Altitude Azimuth Distance (km) Brightness Sun altitude
Rises 16:06:45 0° 286° (WNW) 2,431 10.6 19.8°
Reaches altitude 10° 16:08:55 10° 293° (WNW) 1,575 9.6 19.5°
Maximum altitude 16:12:20 44° 7° (N) 645 7.1 19.0°
Drops below altitude 10° 16:15:52 10° 81° (E) 1,630 8.8 18.5°
Sets 16:18:08 0° 88° (E) 2,529 9.7 18.2°
